Weather in Brody

Ukraine / Lviv District     50°04′40″N   25°09′14″E
В апреле 2022 года жителям России запретили посещать сайт meteo.paraplan.net по решению Генеральной прокуратуры. Аудитория сайта уменьшилась в 10 раз. Владельцы сайта не видят смысла в поддержке погодного сервера в таких условиях. Сайт будет закрыт в октябре.
temp.,
°C
wind,
m/s
gust,
m/s
humid.,
%
clouds,
%
prec.,
mm/h
press.,
hPa
HPBL,
m
4 october, tue
tue400:00+7wnw8158496 0.0 1010815
03:00+7wnw8158799 0.0 1011787
06:00+6w81593100 0.0 1012689
09:00+8w71391100 0.0 1013750
12:00+8wnw71286100 0.3 1015936
15:00+10wnw81283100 0.4 10161280
18:00+10wnw71381100 0.1 1019871
21:00+9w71385100 0.3 1021667
5 october, wed
wed500:00+9w61383100 0.0 1022480
03:00+8w5128750 0.0 1024393
06:00+6w51289100 0.0 1024313
09:00+8w41183100 0.0 1026418
12:00+11w577093 0.0 1026526
15:00+14w5658100 0.0 1025869
18:00+13sw357096 0.0 102487
21:00+10sw3578100 0.0 102569
6 october, thu
thu600:00+9sw3480100 0.0 102565
03:00+9sw3774100 0.0 1025114
06:00+8sw3375100 0.0 102442
09:00+10sw397464 0.0 1025258
12:00+15w696073 0.0 1025499
15:00+18w695599 0.0 1024801
18:00+15w5106889 0.0 1025303
21:00+12w4118485 0.0 1027213
7 october, fri
fri700:00+12wnw41189100 0.0 1029306
03:00+11nw36945 0.0 1030113
06:00+8wnw22961 0.0 103127
09:00+10nw12892 0.0 103296
12:00+14n22580 0.0 1031606
15:00+16ne22475 0.0 1029907
18:00+13e22592 0.0 102817
21:00+10se33705 0.0 102734
8 october, sat
sat800:00+9se48745 0.0 1027132
03:00+8sse411775 0.0 1025194
06:00+8sse512745 0.0 1023211
09:00+10s511755 0.0 1022265
12:00+16ssw456310 0.0 1021495
15:00+18wsw345622 0.0 1020911
18:00+16w227096 0.0 102025
21:00+12w228431 0.0 102121